Time,TemperatureF,DewpointF,PressureIn,WindDirection,WindDirectionDegrees,WindSpeedMPH,WindSpeedGustMPH,Humidity,HourlyPrecipIn,Conditions,Clouds,dailyrainin,SolarRadiationWatts/m^2,SoftwareType,DateUTC
2013-04-09 00:03:00,71.8,46.1,29.91,SSE,159,16.0,0.0,40,0.00,,,0.00,1,WeatherHawk,2013-04-09 05:03:00,
2013-04-09 00:09:00,71.6,46.0,29.92,WSW,246,10.0,0.0,40,0.00,,,0.00,1,WeatherHawk,2013-04-09 05:09:00,
2013-04-09 00:14:00,71.6,46.6,29.92,SSE,152,7.0,0.0,41,0.00,,,0.00,1,WeatherHawk,2013-04-09 05:14:00,
2013-04-09 00:20:00,71.6,46.7,29.91,SE,137,15.0,0.0,41,0.00,,,0.00,0,WeatherHawk,2013-04-09 05:20:00,
2013-04-09 00:25:00,71.4,46.5,29.92,ENE,65,6.0,0.0,41,0.00,,,0.00,0,WeatherHawk,2013-04-09 05:25:00,
2013-04-09 00:30:00,71.3,46.4,29.93,SSE,149,10.0,0.0,41,0.00,,,0.00,0,WeatherHawk,2013-04-09 05:30:00,
2013-04-09 00:35:00,71.4,46.4,29.92,South,176,10.0,0.0,41,0.00,,,0.00,0,WeatherHawk,2013-04-09 05:35:00,
2013-04-09 00:40:00,71.2,46.9,29.92,ENE,68,6.0,0.0,42,0.00,,,0.00,1,WeatherHawk,2013-04-09 05:40:00,
2013-04-09 00:45:00,71.1,46.8,29.92,SE,128,8.0,0.0,42,0.00,,,0.00,0,WeatherHawk,2013-04-09 05:45:00,
2013-04-09 00:50:00,71.0,47.4,29.91,NE,55,3.0,0.0,43,0.00,,,0.00,0,WeatherHawk,2013-04-09 05:50:00,
2013-04-09 00:56:00,71.0,47.4,29.91,ESE,121,13.0,0.0,43,0.00,,,0.00,0,WeatherHawk,2013-04-09 05:56:00,
2013-04-09 01:01:00,71.0,47.3,29.92,SE,131,14.0,0.0,43,0.00,,,0.00,0,WeatherHawk,2013-04-09 06:01:00,
2013-04-09 01:06:00,70.9,47.9,29.91,SE,132,12.0,0.0,44,0.00,,,0.00,1,WeatherHawk,2013-04-09 06:06:00,
2013-04-09 01:11:00,70.8,47.8,29.91,ESE,116,9.0,0.0,44,0.00,,,0.00,0,WeatherHawk,2013-04-09 06:11:00,
2013-04-09 01:17:00,70.8,48.4,29.90,SSE,147,8.0,0.0,45,0.00,,,0.00,1,WeatherHawk,2013-04-09 06:17:00,
2013-04-09 01:22:00,70.7,48.3,29.92,SSE,162,10.0,0.0,45,0.00,,,0.00,1,WeatherHawk,2013-04-09 06:22:00,
2013-04-09 01:29:00,70.6,48.8,29.91,SSE,164,9.0,0.0,46,0.00,,,0.00,0,WeatherHawk,2013-04-09 06:29:00,
2013-04-09 01:34:00,70.6,49.4,29.90,South,169,11.0,0.0,47,0.00,,,0.00,0,WeatherHawk,2013-04-09 06:34:00,
2013-04-09 01:40:00,70.5,49.3,29.91,SSE,149,11.0,0.0,47,0.00,,,0.00,0,WeatherHawk,2013-04-09 06:40:00,
2013-04-09 01:45:00,70.4,49.8,29.92,SSE,153,7.0,0.0,48,0.00,,,0.00,0,WeatherHawk,2013-04-09 06:45:00,
2013-04-09 01:51:00,70.3,49.7,29.91,ESE,114,11.0,0.0,48,0.00,,,0.00,0,WeatherHawk,2013-04-09 06:51:00,
2013-04-09 01:56:00,70.3,50.2,29.91,SE,139,13.0,0.0,49,0.00,,,0.00,0,WeatherHawk,2013-04-09 06:56:00,
2013-04-09 02:02:00,70.1,50.1,29.91,SE,137,6.0,0.0,49,0.00,,,0.00,1,WeatherHawk,2013-04-09 07:02:00,
2013-04-09 02:07:00,69.7,51.3,29.91,ESE,122,9.0,0.0,52,0.00,,,0.00,0,WeatherHawk,2013-04-09 07:07:00,
2013-04-09 02:13:00,69.4,51.5,29.91,SSE,159,6.0,0.0,53,0.00,,,0.00,0,WeatherHawk,2013-04-09 07:13:00,